Wind_Speed
61 65 60 60 61 69 72 74 75 79 82 81 81 79 81 81 79 78 80 69 52 52 47 46 50 46 60 83 96 97 93 93 92 90 85 84 84 84 79 77 80 81 78
60 58 60 62 65 73 72 72 74 77 75 76 80 86 87 85 84 86 83 81 70 59 50 53 56 51 52 65 86 98 102 101 101 98 95 94 95 96 92 88 84 82 81
60 60 60 64 67 72 70 71 75 80 84 88 87 89 92 92 91 92 87 80 72 64 56 52 50 54 51 59 70 83 90 91 97 101 102 101 97 99 95 92 94 95 93
60 59 62 69 75 76 78 83 83 89 89 93 94 95 98 99 100 102 97 79 73 62 60 55 50 54 54 56 63 73 80 82 85 90 91 95 102 106 103 100 94 90 88
61 65 73 78 79 84 85 89 90 93 93 94 98 99 101 102 105 108 98 79 72 67 62 56 52 54 55 56 59 65 73 75 74 79 82 87 91 90 90 90 86 85 84
65 73 82 80 80 83 90 92 94 100 96 96 101 105 105 109 113 112 99 79 73 68 59 56 52 55 56 55 57 58 66 68 70 71 75 72 75 80 84 87 89 91 88
74 77 82 82 85 92 96 100 103 104 103 103 105 107 112 113 117 119 96 80 73 68 63 61 54 55 56 57 59 57 61 66 65 73 75 77 76 71 68 71 77 80 81
84 83 81 86 93 98 100 104 105 105 106 108 112 112 115 120 123 116 88 80 72 71 58 58 55 54 56 58 59 58 61 64 66 70 72 71 75 74 71 68 68 72 71
89 87 87 94 94 99 103 107 107 108 109 113 116 118 120 128 117 110 83 79 72 72 61 55 53 53 57 59 59 60 62 64 66 72 74 74 73 76 76 75 76 75 74
89 90 92 95 100 104 105 108 110 113 116 119 122 127 128 124 122 101 84 80 75 68 60 55 54 53 56 59 59 60 63 65 68 71 76 79 78 77 78 77 78 77 74
96 97 99 102 105 106 108 113 117 122 123 126 130 132 130 130 109 94 82 78 73 61 57 53 52 53 55 58 59 60 62 62 66 69 71 74 77 79 79 77 77 77 75
101 104 104 106 107 109 113 118 120 124 127 130 134 132 133 122 98 88 78 75 64 55 53 52 51 51 52 56 58 60 61 61 63 67 69 70 74 78 82 79 77 75 76
102 104 108 113 113 114 117 123 125 126 126 131 135 133 129 110 92 82 74 69 58 53 51 50 50 49 51 55 57 59 60 60 62 65 68 68 70 75 80 78 76 74 76
107 108 114 117 121 123 125 128 131 132 132 136 138 134 118 100 84 76 69 64 56 51 50 49 50 48 51 53 55 56 57 58 58 60 64 67 68 69 72 73 72 74 75
114 116 119 122 124 127 131 135 137 139 139 134 135 122 103 84 77 68 63 57 50 49 49 48 47 47 48 50 53 52 53 54 54 56 59 62 64 66 67 68 69 72 73
127 128 131 135 134 134 137 140 141 142 137 132 121 108 86 77 69 62 56 50 48 45 46 46 45 44 46 48 49 50 52 52 53 54 56 57 58 60 64 66 68 69 71
134 134 135 137 137 137 138 141 141 139 129 120 109 88 77 69 63 54 51 48 44 43 43 44 45 42 43 46 46 47 49 51 53 54 54 55 57 58 60 63 65 68 70
136 137 139 141 143 141 140 139 136 130 121 108 90 77 67 61 53 52 45 43 42 42 43 42 42 40 40 42 44 46 47 49 51 52 53 54 56 56 58 59 61 64 65
138 139 140 138 140 140 140 138 128 113 105 88 79 66 57 52 48 46 43 41 39 42 41 40 40 40 39 40 41 43 44 46 45 45 47 51 53 53 55 56 57 58 59
144 147 148 143 146 139 138 127 112 101 83 76 66 55 49 47 43 43 43 40 41 41 40 38 39 38 37 36 35 36 35 34 35 38 41 45 46 46 48 49 51 52 52
149 148 148 147 144 134 125 113 100 81 74 61 53 49 45 42 41 41 40 40 38 38 39 36 37 36 34 32 31 30 27 28 30 33 36 38 39 41 43 44 44 45 46
153 153 148 142 132 121 111 97 81 70 58 54 51 47 41 38 39 37 38 37 37 38 36 36 36 36 34 31 29 28 28 29 30 30 31 32 33 35 38 40 41 42 44
153 139 138 127 116 106 95 83 68 58 56 51 48 43 38 37 37 37 37 37 38 36 36 37 36 37 34 31 30 30 30 29 30 31 32 33 35 36 38 39 39 41 41
141 133 119 111 100 92 79 64 55 54 51 46 40 37 36 34 34 35 36 36 36 36 37 38 37 38 36 33 32 31 32 30 31 32 33 35 36 36 38 38 37 38 37
120 106 98 90 85 71 55 52 48 47 46 42 36 34 33 33 33 34 34 35 37 38 37 38 37 38 40 37 35 34 33 31 31 33 34 35 35 36 38 36 35 34 34
90 82 78 71 59 50 47 46 44 43 40 37 32 30 30 32 33 33 33 35 37 37 35 37 38 38 40 39 37 37 34 33 32 32 34 35 35 36 37 34 33 33 33
Wind_Direction
325 328 331 330 329 328 329 329 326 327 327 329 330 332 332 330 329 324 320 323 318 308 293 291 280 271 252 242 237 239 243 248 252 255 257 259 262 261 260 257 256 249 245
324 325 327 325 322 325 326 325 324 326 328 329 330 330 330 325 322 329 322 317 314 314 300 289 286 269 262 252 243 240 240 244 247 249 251 253 256 261 264 263 261 260 257
319 320 324 321 320 321 323 324 327 326 325 326 328 327 329 328 327 326 322 322 313 311 304 292 285 269 264 256 250 245 244 246 247 249 250 251 252 255 258 263 268 269 268
313 317 319 318 319 318 317 319 322 323 322 325 324 325 325 326 328 327 325 318 314 312 308 296 279 272 261 254 251 248 246 247 248 249 253 254 255 256 258 260 262 263 265
314 314 316 318 316 317 316 315 317 319 318 321 322 323 324 323 322 324 323 314 312 309 311 292 275 270 262 257 250 251 250 249 249 250 252 254 257 260 261 260 260 260 261
306 309 312 313 311 311 311 315 315 317 318 318 319 320 320 320 320 323 321 311 310 309 307 290 283 265 258 255 252 251 248 247 245 245 248 251 254 257 259 262 261 259 259
304 306 309 307 305 308 310 311 313 316 318 316 317 318 318 319 319 320 317 310 309 308 302 294 277 261 256 254 250 247 247 247 245 242 245 249 251 254 255 258 262 262 264
303 303 304 304 305 306 308 310 312 314 313 312 313 316 316 317 319 319 314 309 307 309 298 291 273 259 256 254 250 246 244 247 246 244 243 246 249 250 250 249 252 257 259
302 302 301 303 306 308 307 309 311 311 313 313 313 313 313 316 319 317 311 309 306 307 295 283 267 260 257 255 250 247 245 245 246 244 241 244 249 252 249 250 254 258 259
299 300 300 301 304 306 307 308 309 310 312 312 312 312 313 315 316 313 309 307 305 301 289 276 263 259 257 255 252 248 247 246 246 245 245 246 248 251 254 256 257 259 261
300 300 301 302 304 305 306 306 308 309 310 311 311 313 313 314 314 310 306 305 302 293 281 270 262 258 257 254 251 250 249 249 248 248 249 248 247 249 253 253 255 257 258
300 300 302 304 304 302 304 304 306 306 308 310 310 312 312 313 310 308 304 304 296 285 273 267 262 257 257 254 251 251 251 251 251 251 250 248 247 247 251 254 254 256 255
302 303 304 304 302 302 303 303 304 306 306 308 311 311 313 310 308 304 301 302 290 278 269 263 260 258 256 253 252 252 253 253 253 251 251 251 250 249 251 254 256 256 255
299 300 300 299 300 302 303 304 305 307 308 307 309 311 309 307 303 299 298 297 287 273 263 260 257 256 255 256 255 255 255 255 254 252 250 251 252 252 254 254 255 255 256
299 299 300 300 299 300 302 304 305 306 306 307 308 309 306 302 299 294 295 290 276 265 259 257 256 256 256 255 255 255 254 254 254 252 250 251 253 254 253 255 255 256 256
299 300 302 302 302 301 301 304 306 307 307 307 308 307 302 299 294 293 290 281 272 263 259 255 256 255 255 255 256 256 257 257 255 254 252 252 253 254 254 255 256 257 258
296 297 297 299 301 302 303 305 306 307 308 307 306 303 299 294 291 287 280 275 266 258 256 256 255 252 251 253 255 256 258 259 260 258 256 254 254 255 255 256 257 258 260
296 295 297 299 302 302 303 306 307 307 308 306 303 300 295 290 285 280 275 267 260 255 251 253 254 254 251 252 254 258 259 259 259 259 258 257 257 258 259 260 261 262 264
298 299 300 300 302 303 305 307 308 307 306 302 300 296 289 283 279 271 270 264 260 255 254 250 251 250 250 253 255 258 259 259 260 259 257 256 257 260 261 262 263 264 265
297 298 300 302 304 305 306 306 306 306 301 299 295 289 282 276 270 266 264 262 261 254 247 247 248 247 250 252 256 260 261 260 257 254 254 255 258 260 262 264 266 268 270
298 298 300 303 303 304 305 305 305 301 298 293 289 284 276 270 268 266 261 262 256 247 245 245 244 246 246 251 257 259 258 255 255 255 257 257 258 261 264 266 268 269 272
300 299 300 300 302 303 302 302 300 296 291 289 285 279 271 267 266 258 255 254 248 244 244 242 241 241 242 248 252 253 251 252 255 257 258 261 263 264 267 270 274 277 277
296 298 300 298 300 299 299 299 294 287 288 285 282 272 265 264 255 250 248 246 244 244 242 240 239 237 238 244 246 249 253 257 260 260 262 264 265 269 273 277 278 280 282
296 296 297 297 296 297 296 290 284 284 282 280 273 266 262 258 249 245 244 243 244 244 242 240 238 235 237 241 244 248 253 257 260 262 264 266 270 274 276 279 282 284 285
295 295 294 294 296 294 287 281 279 278 276 273 268 262 256 252 250 246 245 244 244 245 243 242 239 236 236 239 241 245 252 257 262 265 267 270 272 275 278 283 282 282 280
291 292 293 294 292 286 280 277 276 273 269 265 261 256 252 249 247 247 245 244 244 247 244 242 238 238 240 240 242 246 251 257 263 268 269 270 273 275 279 279 279 278 281
Height
10701 10696 10691 10687 10682 10676 10670 10665 10660 10655 10649 10643 10638 10632 10625 10620 10614 10610 10601 10596 10590 10587 10581 10578 10574 10568 10566 10567 10569 10570 10574 10576 10581 10584 10589 10591 10593 10598 10603 10609 10615 10619 10622
10692 10688 10683 10678 10672 10667 10662 10657 10652 10648 10642 10635 10628 10620 10613 10605 10599 10591 10583 10576 10572 10566 10561 10556 10553 10548 10544 10545 10547 10548 10551 10556 10562 10566 10570 10576 10579 10579 10581 10587 10593 10598 10603
10682 10678 10673 10668 10662 10656 10651 10646 10641 10635 10628 10622 10615 10608 10598 10589 10580 10572 10565 10556 10549 10545 10540 10535 10533 10529 10524 10523 10524 10528 10530 10535 10540 10546 10551 10554 10560 10566 10568 10569 10570 10572 10578
10671 10666 10661 10656 10650 10644 10639 10634 10628 10621 10614 10607 10599 10590 10581 10571 10562 10554 10545 10537 10530 10525 10520 10515 10512 10510 10506 10503 10504 10506 10510 10514 10520 10526 10530 10535 10539 10545 10551 10556 10557 10557 10557
10659 10655 10650 10643 10636 10629 10624 10619 10614 10607 10600 10591 10582 10573 10564 10554 10547 10536 10526 10517 10512 10506 10500 10495 10491 10490 10489 10486 10485 10488 10492 10496 10503 10507 10513 10517 10521 10525 10529 10536 10540 10539 10544
10648 10644 10639 10630 10622 10614 10607 10602 10596 10589 10581 10574 10565 10556 10547 10535 10525 10516 10506 10498 10489 10485 10480 10476 10471 10469 10469 10468 10468 10470 10473 10478 10484 10490 10495 10500 10504 10507 10513 10516 10519 10521 10525
10636 10631 10625 10617 10607 10600 10591 10585 10577 10569 10561 10553 10545 10536 10526 10516 10505 10493 10483 10475 10467 10462 10457 10455 10451 10450 10450 10449 10449 10452 10457 10461 10465 10473 10478 10482 10487 10490 10494 10498 10501 10503 10505
10620 10616 10610 10600 10592 10583 10575 10566 10559 10550 10541 10532 10524 10517 10505 10493 10483 10471 10459 10452 10445 10441 10436 10434 10431 10430 10430 10432 10432 10435 10440 10445 10449 10454 10459 10463 10467 10473 10479 10483 10485 10487 10489
10605 10600 10592 10583 10575 10565 10554 10545 10537 10528 10520 10508 10500 10491 10483 10471 10460 10449 10437 10430 10424 10419 10416 10414 10412 10412 10412 10412 10415 10418 10422 10427 10432 10436 10440 10445 10450 10455 10460 10464 10467 10470 10473
10592 10584 10575 10565 10557 10546 10534 10521 10512 10505 10496 10483 10472 10465 10457 10447 10437 10426 10414 10408 10403 10398 10395 10394 10394 10394 10394 10395 10397 10402 10405 10408 10413 10418 10422 10429 10434 10438 10443 10449 10452 10456 10459
10572 10563 10555 10546 10539 10528 10515 10503 10489 10478 10471 10461 10450 10440 10428 10419 10408 10401 10391 10385 10380 10376 10374 10374 10375 10376 10377 10378 10380 10384 10388 10392 10396 10400 10404 10410 10415 10420 10425 10429 10434 10437 10442
10550 10540 10534 10523 10518 10509 10496 10486 10477 10462 10451 10440 10427 10419 10408 10395 10382 10375 10368 10363 10359 10356 10355 10356 10357 10358 10360 10362 10364 10367 10371 10375 10379 10382 10386 10390 10396 10401 10406 10410 10414 10417 10421
10525 10516 10509 10496 10489 10483 10476 10463 10456 10444 10434 10421 10406 10392 10381 10370 10359 10351 10345 10342 10339 10337 10337 10338 10339 10341 10343 10345 10347 10350 10354 10358 10361 10365 10369 10373 10378 10382 10387 10392 10395 10399 10401
10507 10501 10490 10476 10463 10456 10448 10442 10431 10420 10409 10394 10381 10367 10354 10343 10334 10328 10325 10323 10321 10319 10320 10321 10323 10325 10326 10330 10332 10335 10338 10340 10343 10347 10351 10355 10360 10366 10370 10373 10376 10379 10381
10479 10476 10466 10457 10445 10434 10424 10415 10404 10392 10379 10366 10353 10339 10326 10316 10310 10306 10304 10302 10302 10301 10303 10306 10308 10310 10312 10315 10316 10319 10321 10324 10327 10331 10335 10339 10344 10348 10352 10354 10357 10359 10362
10440 10436 10432 10423 10415 10407 10397 10386 10375 10361 10347 10333 10322 10310 10299 10292 10286 10285 10285 10283 10284 10285 10288 10291 10293 10297 10298 10301 10303 10305 10306 10309 10312 10316 10320 10324 10328 10331 10334 10336 10339 10341 10342
10428 10413 10403 10396 10387 10377 10367 10356 10344 10331 10315 10303 10295 10284 10276 10270 10267 10267 10267 10268 10269 10271 10274 10277 10279 10283 10286 10288 10290 10291 10293 10295 10297 10301 10306 10310 10312 10314 10317 10320 10322 10323 10324
10398 10388 10380 10368 10360 10349 10339 10327 10315 10302 10286 10275 10267 10261 10254 10250 10249 10249 10252 10253 10254 10258 10261 10263 10266 10269 10273 10275 10276 10278 10280 10282 10284 10287 10291 10295 10296 10299 10302 10304 10305 10307 10308
10365 10357 10348 10339 10330 10321 10308 10295 10284 10272 10258 10249 10243 10238 10235 10233 10233 10233 10234 10238 10243 10246 10248 10251 10253 10257 10260 10262 10264 10266 10267 10269 10272 10275 10277 10279 10281 10284 10286 10288 10289 10290 10291
10334 10325 10317 10308 10298 10288 10278 10267 10256 10245 10234 10227 10222 10219 10219 10217 10217 10219 10221 10226 10230 10232 10235 10238 10242 10246 10249 10251 10253 10255 10256 10259 10261 10262 10264 10266 10269 10271 10273 10274 10275 10276 10277
10303 10294 10284 10278 10269 10257 10249 10240 10232 10223 10213 10208 10204 10203 10204 10203 10204 10205 10209 10213 10216 10219 10223 10227 10231 10235 10238 10241 10244 10245 10247 10249 10250 10252 10254 10256 10258 10259 10261 10262 10263 10264 10264
10270 10262 10252 10245 10237 10230 10222 10216 10208 10202 10195 10191 10190 10189 10190 10190 10191 10193 10197 10200 10204 10208 10212 10217 10221 10224 10228 10232 10235 10236 10238 10240 10242 10244 10246 10247 10248 10249 10250 10251 10252 10252 10252
10247 10235 10226 10218 10209 10201 10195 10192 10186 10181 10179 10176 10175 10174 10175 10177 10178 10180 10184 10188 10193 10197 10202 10206 10211 10214 10218 10223 10226 10228 10230 10232 10234 10236 10237 10238 10239 10240 10240 10241 10241 10240 10238
10214 10206 10197 10190 10182 10177 10172 10168 10167 10164 10161 10161 10161 10161 10162 10164 10166 10169 10173 10178 10183 10187 10191 10196 10200 10205 10209 10213 10217 10219 10220 10223 10226 10227 10228 10229 10229 10230 10230 10230 10229 10227 10225
10183 10178 10172 10164 10158 10153 10149 10149 10149 10149 10147 10147 10149 10149 10151 10154 10157 10160 10164 10170 10173 10176 10181 10186 10191 10195 10199 10203 10207 10210 10212 10215 10216 10217 10218 10219 10220 10220 10219 10219 10218 10216 10215
10157 10152 10147 10144 10138 10135 10134 10132 10134 10135 10135 10135 10137 10139 10141 10144 10147 10150 10155 10159 10162 10166 10172 10176 10181 10184 10189 10194 10197 10200 10203 10205 10207 10208 10209 10209 10210 10209 10209 10209 10208 10207 10206